Location: Prince Albert
(53.2000°N, 105.7500°W)
Time: 09:20:14
(UTC-06:00)

N. Korean satellite - Visible Passes

Search period start: 27 November 2020 00:00
Search period end: 07 December 2020 00:00
Orbit: 452 x 504 km, 97.2° (Epoch: 26 November)

Date Brightness Start Highest point End Pass type
(mag) Time Alt. Az. Time Alt. Az. Time Alt. Az.
27 Nov 8.3 06:09:52 10° NNE 06:13:09 33° E 06:16:27 10° SSE visible
27 Nov 7.6 07:43:25 10° N 07:46:24 25° WNW 07:49:24 10° WSW visible
27 Nov 9.1 18:24:39 10° SSW 18:27:27 23° W 18:30:18 10° NW visible
28 Nov 9.4 05:44:06 10° NE 05:46:41 18° E 05:49:17 10° SE visible
28 Nov 6.8 07:16:48 10° N 07:20:14 45° WNW 07:23:42 10° SW visible
28 Nov 7.8 17:57:43 10° S 18:01:01 44° W 18:04:21 10° NNW visible
29 Nov 10.2 05:19:38 10° ENE 05:20:07 10° E 05:20:36 10° E visible
29 Nov 6.5 06:50:23 10° NNE 06:53:59 87° WNW 06:57:38 10° SSW visible
29 Nov 6.5 17:31:14 10° SSE 17:34:39 89° E 17:38:09 10° NNW visible
30 Nov 7.6 06:24:09 10° NNE 06:27:39 47° E 06:31:11 10° S visible
30 Nov 7.9 07:58:07 10° NNW 08:00:43 19° WNW 08:03:20 10° WSW visible
30 Nov 9.7 18:39:40 10° SW 18:41:59 17° W 18:44:20 10° NW visible
01 Dec 8.9 05:58:08 10° NE 06:01:12 25° E 06:04:18 10° SSE visible
01 Dec 7.2 07:31:20 10° N 07:34:35 32° WNW 07:37:52 10° SW visible
01 Dec 8.6 18:12:22 10° SSW 18:15:27 31° W 18:18:37 10° NNW visible
02 Dec 9.8 05:32:36 10° NE 05:34:40 14° E 05:36:45 10° SE visible
02 Dec 6.5 07:04:47 10° N 07:08:22 61° WNW 07:11:58 10° SSW visible
02 Dec 7.1 17:45:37 10° S 17:49:02 62° WSW 17:52:30 10° NNW visible
03 Dec 6.8 06:38:25 10° NNE 06:42:03 70° ESE 06:45:42 10° S visible
03 Dec 8.3 08:12:53 10° NNW 08:14:57 15° WNW 08:17:01 10° W visible
03 Dec 9.9 18:54:58 10° WSW 18:56:28 12° W 18:57:59 10° WNW visible
04 Dec 8.2 06:12:14 10° NNE 06:15:38 36° E 06:19:02 10° SSE visible
04 Dec 7.7 07:45:51 10° N 07:48:50 24° WNW 07:51:50 10° WSW visible
04 Dec 9.2 18:27:05 10° SSW 18:29:52 22° W 18:32:41 10° NW visible
05 Dec 9.3 05:46:21 10° NE 05:49:07 20° E 05:51:53 10° SE visible
05 Dec 6.9 07:19:10 10° N 07:22:38 43° WNW 07:26:07 10° SW visible
05 Dec 7.9 18:00:03 10° S 18:03:21 42° W 18:06:43 10° NNW visible
06 Dec 10.1 05:21:20 10° ENE 05:22:30 11° E 05:23:39 10° ESE visible
06 Dec 6.5 06:52:40 10° NNE 06:56:21 82° WNW 07:00:01 10° SSW visible
06 Dec 6.6 17:33:28 10° SSE 17:36:56 85° W 17:40:29 10° NNW visible
